Flag for Belgium Weather past 2 weeks in Namur, Belgium

Now
54 °F

Passing clouds.


Feels Like: 53 °F
Forecast: 40 / 63 °F
Wind: 3 mph from Northwest

Location: Charleroi / Gosselies

Current Time: Sep 22, 2014 at 10:51:38 PM

Latest Report: Sep 22, 2014 at 9:50 PM


Visibility: 4 mi

Pressure: 30.21 "Hg

Humidity: 77%

Dew point: 46 °F

Location of NamurLocation

Historic Weather in Namur — Graph

°F

Namur temperature yesterday

Maximum temperature yesterday: 63 °F (at 5:20 PM)
Minimum temperature yesterday: 52 °F (at 11:20 PM)
Average temperature yesterday: 59 °F

Past Weeks' High & Low Weather Summary

 TemperatureHumidityPressure
High77 °F (Sep 17, 2:20 PM)100% (Sep 8, 7:50 AM)30.27 "Hg (Sep 8, 7:50 AM)
Low48 °F (Sep 12, 4:20 AM)44% (Sep 17, 2:50 PM)29.80 "Hg (Sep 18, 5:20 AM)
Average61 °F80%30.05 "Hg
* Reported Sep 7 9:20 PM — Sep 22 9:20 PM, Namur, Weather by CustomWeather, © 2014

Note: Actual official high and low records may vary slightly from our data, if they occured in-between our weather recording intervals... More about our weather records

Advertising

Namur weather history for previous 24 hours

 ConditionsComfort  
Time TempWeatherWind HumidityBarometerVisibility
9:20 PM
Sep 22
54 °FPassing clouds.5 mph77%30.21 "Hg5 mi
8:50 PM54 °FPassing clouds.3 mph77%30.21 "Hg5 mi
8:20 PM55 °FPassing clouds.6 mph67%30.21 "Hg6 mi
7:50 PM55 °FPassing clouds.6 mph67%30.21 "Hg6 mi
7:20 PM57 °FPassing clouds.8 mph67%30.21 "Hg6 mi
6:50 PM59 °FPassing clouds.8 mph59%30.18 "Hg6 mi
6:20 PM59 °FPassing clouds.9 mph55%30.18 "Hg6 mi
5:50 PM59 °FPassing clouds.9 mph51%30.18 "Hg6 mi
5:20 PM61 °FPassing clouds.10 mph48%30.18 "Hg6 mi
4:50 PM61 °FPassing clouds.10 mph52%30.18 "Hg6 mi
4:20 PM61 °FPassing clouds.10 mph52%30.18 "Hg6 mi
3:50 PM61 °FPassing clouds.9 mph55%30.18 "Hg6 mi
3:20 PM61 °FPassing clouds.12 mph55%30.18 "Hg6 mi
2:50 PM59 °FPassing clouds.10 mph55%30.18 "Hg6 mi
2:20 PM59 °FPassing clouds.10 mph59%30.21 "Hg6 mi
1:50 PM59 °FPassing clouds.10 mph55%30.21 "Hg6 mi
1:20 PM59 °FPassing clouds.10 mph55%30.21 "Hg5 mi
12:50 PM59 °FPassing clouds.10 mph59%30.21 "Hg5 mi
12:20 PM59 °FPassing clouds.9 mph63%30.21 "Hg4 mi
11:50 AM57 °FPassing clouds.9 mph72%30.21 "Hg4 mi
11:20 AM55 °FScattered clouds.8 mph77%30.21 "Hg4 mi
10:50 AM55 °FPartly sunny.7 mph77%30.21 "Hg4 mi
10:20 AM55 °FPassing clouds.7 mph77%30.21 "Hg4 mi
9:50 AM54 °FPassing clouds.7 mph82%30.21 "Hg4 mi
9:20 AM54 °FPartly sunny.6 mph82%30.21 "Hg4 mi
8:50 AM52 °FBroken clouds.5 mph88%30.21 "Hg4 mi
8:20 AM52 °FPassing clouds.5 mph88%30.21 "Hg4 mi
7:50 AM52 °FPassing clouds.3 mph88%30.21 "Hg5 mi
7:20 AM50 °FClear.3 mph94%30.21 "Hg5 mi
6:50 AM52 °FPassing clouds.5 mph94%30.21 "Hg6 mi
6:20 AM52 °FPassing clouds.5 mph94%30.21 "Hg5 mi
5:50 AM50 °FPassing clouds.3 mph100%30.21 "Hg4 mi
5:20 AM50 °FPassing clouds.5 mph100%30.21 "Hg4 mi
4:50 AM50 °FPassing clouds.3 mph100%30.21 "Hg4 mi
4:20 AM50 °FPassing clouds.3 mph100%30.21 "Hg4 mi
3:50 AM52 °FPassing clouds.3 mph94%30.21 "Hg4 mi
3:20 AM52 °FFog.5 mph94%30.21 "Hg3 mi
2:50 AM52 °FFog.5 mph94%30.21 "Hg3 mi
2:20 AM52 °FFog.5 mph94%30.21 "Hg3 mi
1:50 AM52 °FFog.5 mph94%30.21 "Hg3 mi
1:20 AM54 °FPassing clouds.3 mph88%30.21 "Hg4 mi
12:50 AM54 °FPassing clouds.5 mph88%30.21 "Hg4 mi
12:20 AM54 °FPassing clouds.5 mph88%30.21 "Hg4 mi
11:50 PM
Sep 21
52 °FPassing clouds.5 mph94%30.21 "Hg4 mi
11:20 PM52 °FPassing clouds.3 mph94%30.18 "Hg4 mi
10:50 PM54 °FPassing clouds.3 mph88%30.18 "Hg6 mi
10:20 PM54 °FClear.6 mph88%30.18 "Hg6 mi
Weather by CustomWeather, © 2014

See weather overviewHow to use our weather pages